This is the latest recevied weather packets stored in our database for station/object KD9IXX-13. If no packets are shown the sender has not sent any weather packets the latest 10 day(s).
| Time | Temp. | Humidity | Pressure | Rain* | Wind** | Luminosity | Snow |
|---|---|---|---|---|---|---|---|
| 1777737302 | 10.56° C | 49% | 1022 hPa | 0 mm | - | 809 W/m² | - |
| 1777737003 | 10° C | 48% | 1021.6 hPa | 0 mm | - | 672 W/m² | - |
| 1777736702 | 10.56° C | 48% | 1021.8 hPa | 0 mm | - | 789 W/m² | - |
| 1777736402 | 10° C | 50% | 1021.9 hPa | 0 mm | - | 779 W/m² | - |
| 1777736103 | 10° C | 49% | 1022 hPa | 0 mm | - | 753 W/m² | - |
| 1777735802 | 10° C | 54% | 1021.7 hPa | 0 mm | - | 722 W/m² | - |
| 1777735503 | 9.44° C | 48% | 1021.8 hPa | 0 mm | - | 702 W/m² | - |
| 1777735202 | 8.89° C | 49% | 1022 hPa | 0 mm | - | 680 W/m² | - |
| 1777734902 | 9.44° C | 49% | 1021.8 hPa | 0 mm | - | 694 W/m² | - |
| 1777734602 | 8.89° C | 49% | 1021.7 hPa | 0 mm | - | 721 W/m² | - |
| 1777734302 | 9.44° C | 48% | 1021.9 hPa | 0 mm | - | 685 W/m² | - |
| 1777734003 | 8.89° C | 49% | 1021.8 hPa | 0 mm | - | 688 W/m² | - |
| 1777733702 | 9.44° C | 52% | 1021.8 hPa | 0 mm | - | 696 W/m² | - |
| 1777733403 | 8.89° C | 56% | 1021.8 hPa | 0 mm | - | 676 W/m² | - |
| 1777732802 | 8.89° C | 48% | 1021.8 hPa | 0 mm | - | 669 W/m² | - |
| 1777732502 | 8.33° C | 52% | 1021.8 hPa | 0 mm | - | 649 W/m² | - |
| 1777732202 | 8.33° C | 49% | 1021.6 hPa | 0 mm | - | 629 W/m² | - |
| 1777731902 | 7.78° C | 48% | 1021.8 hPa | 0 mm | - | 637 W/m² | - |
| 1777731602 | 7.78° C | 60% | 1021.7 hPa | 0 mm | - | 589 W/m² | - |
| 1777731002 | 7.78° C | 56% | 1021.6 hPa | 0 mm | - | 561 W/m² | - |
| 1777730702 | 7.78° C | 58% | 1021.5 hPa | 0 mm | - | 536 W/m² | - |
| 1777730403 | 7.78° C | 59% | 1021.8 hPa | 0 mm | - | 492 W/m² | - |
| 1777730102 | 8.33° C | 60% | 1021.5 hPa | 0 mm | - | 548 W/m² | - |
| 1777729802 | 7.78° C | 62% | 1021.7 hPa | 0 mm | - | 465 W/m² | - |
| 1777729502 | 7.22° C | 64% | 1021.5 hPa | 0 mm | - | 394 W/m² | - |
* Rain latest hour (hover to see other rain measurements)
** Current wind speed in m/s (hover to see current wind gust speed)